Date,TemperatureHighF,TemperatureAvgF,TemperatureLowF,DewpointHighF,DewpointAvgF,DewpointLowF,HumidityHigh,HumidityAvg,HumidityLow,PressureMaxIn,PressureMinIn,WindSpeedMaxMPH,WindSpeedAvgMPH,GustSpeedMaxMPH,PrecipitationSumIn
2013-1-1,38.9,35.8,27.0,28.6,24.0,11.3,76,62,50,30.01,29.83,20,6,24,0.00
2013-1-2,32.7,26.0,22.4,15.1,12.0,8.9,62,55,45,30.18,29.99,21,5,21,0.00
2013-1-3,32.2,27.1,22.6,17.5,14.8,13.4,69,59,50,30.20,30.07,12,3,17,0.00
2013-1-4,36.2,32.7,27.6,21.5,19.8,17.2,66,59,53,30.09,29.96,27,7,31,0.00
2013-1-5,43.0,34.4,28.8,22.8,20.0,17.0,68,56,43,30.29,30.02,18,4,21,0.00
2013-1-6,46.1,37.7,30.8,30.9,26.6,21.4,87,65,47,30.22,29.96,16,4,20,0.00
2013-1-7,45.2,36.9,26.3,29.3,24.3,19.4,75,61,42,30.40,30.05,22,2,22,0.00
2013-1-8,48.6,35.8,25.1,32.6,26.4,19.0,83,69,50,30.42,30.33,15,2,16,0.00
2013-1-9,48.5,39.3,28.1,37.4,31.1,23.8,85,73,59,30.38,30.13,17,3,20,0.00
2013-1-10,48.6,41.5,35.6,31.9,25.8,23.5,62,54,38,30.53,30.24,18,4,21,0.00
2013-1-11,45.6,40.4,33.6,43.1,32.4,22.8,93,74,57,30.53,30.07,12,2,13,0.53
2013-1-12,48.3,45.2,42.1,44.1,42.5,40.4,94,90,85,30.16,30.06,7,1,8,0.01
2013-1-13,48.2,45.4,42.9,46.8,44.0,41.5,96,94,91,30.15,29.99,6,1,7,0.01
2013-1-14,56.1,49.2,38.6,53.6,42.6,26.5,96,80,45,30.28,29.88,15,3,17,0.08
2013-1-15,38.7,36.6,34.2,33.3,28.2,25.1,84,72,61,30.34,30.20,11,2,11,0.16
2013-1-16,35.7,33.3,31.7,32.7,30.6,28.1,92,90,81,30.20,29.80,15,3,15,0.82
2013-1-17,42.3,37.9,35.2,32.5,28.8,23.2,86,70,55,30.08,29.90,17,4,18,0.00
2013-1-18,35.2,28.8,24.6,23.8,12.6,4.9,65,51,35,30.48,29.98,22,5,24,0.00
2013-1-19,51.0,38.8,24.7,28.2,22.8,10.6,69,53,38,30.40,29.92,22,6,26,0.00
2013-1-20,53.5,42.2,29.3,30.7,22.3,10.5,67,47,25,30.04,29.69,40,10,44,0.00
2013-1-21,30.5,27.5,21.2,15.4,10.5,7.0,62,49,41,30.09,29.84,18,3,18,0.00
2013-1-22,25.8,18.2,12.2,9.3,-1.4,-7.4,52,42,31,30.21,29.84,33,12,35,0.00
2013-1-23,18.7,13.0,8.9,1.7,-3.6,-8.6,68,47,38,30.26,30.17,23,7,26,0.00
2013-1-24,23.5,15.2,6.1,5.4,-0.3,-4.9,79,53,31,30.42,30.12,26,6,28,0.00
2013-1-25,22.4,15.8,10.9,12.9,3.1,-5.1,82,58,41,30.43,30.06,15,3,17,0.00
2013-1-26,27.1,18.5,9.6,9.3,6.7,4.6,82,62,42,30.39,30.05,19,5,22,0.00
2013-1-27,34.4,23.9,12.0,13.1,9.3,3.7,70,54,38,30.53,30.38,18,3,19,0.00
2013-1-28,33.8,29.2,21.2,31.2,23.0,11.3,90,78,62,30.49,30.00,10,2,11,0.14
2013-1-29,53.5,41.4,33.7,43.1,36.8,31.1,90,84,65,30.13,30.00,11,2,12,0.00
2013-1-30,67.5,52.9,41.0,59.8,49.0,38.7,95,87,74,30.06,29.33,22,3,26,0.01
2013-1-31,61.7,44.1,27.9,57.9,30.1,9.5,88,59,39,29.80,29.03,48,15,54,1.25
2013-2-1,30.5,26.4,22.0,17.5,10.8,3.5,77,52,32,30.25,29.80,20,8,33,0.00
2013-2-2,28.5,22.6,16.4,18.5,7.9,4.4,82,54,37,30.31,30.04,19,5,23,0.00
2013-2-3,30.2,25.1,22.6,20.0,17.7,14.8,84,74,60,30.04,29.79,15,2,15,0.02
2013-2-4,28.9,25.3,21.4,18.9,10.7,7.6,73,54,41,29.99,29.81,26,8,28,0.00
2013-2-5,27.3,26.2,25.3,23.1,21.0,18.0,84,80,73,29.95,29.90,6,1,7,0.00
2013-2-6,38.4,32.8,26.1,26.9,18.5,8.7,89,57,44,30.35,29.91,25,5,25,0.02
2013-2-7,32.4,27.9,20.2,22.3,12.5,6.3,66,52,41,30.50,30.30,11,3,13,0.00
2013-2-8,35.2,32.2,27.6,30.5,27.3,22.3,90,82,66,30.30,29.64,24,7,28,0.52
2013-2-9,32.7,27.0,19.5,26.9,15.9,5.4,92,65,37,30.35,29.75,30,9,34,0.12
2013-2-10,37.1,24.9,10.1,19.2,10.6,3.5,77,56,27,30.49,30.31,10,1,13,0.20
2013-2-11,43.2,35.8,28.8,41.6,32.0,19.2,94,86,67,30.32,29.65,10,0,12,0.34
2013-2-12,42.8,39.6,31.7,38.6,27.4,21.6,94,62,49,29.97,29.73,24,8,31,0.00
2013-2-13,41.5,31.9,24.3,29.5,23.5,18.4,87,72,52,29.95,29.67,7,1,9,0.02
2013-2-14,44.7,36.8,31.5,33.0,28.1,22.8,91,72,44,29.99,29.70,14,2,15,0.06
2013-2-15,54.9,41.8,30.6,34.5,29.9,26.1,85,65,42,30.02,29.90,19,3,19,0.00
2013-2-16,39.6,34.8,29.4,31.3,24.6,11.7,87,67,48,29.96,29.74,15,4,17,0.04
2013-2-17,30.4,25.9,17.5,12.2,5.3,-0.2,52,41,32,30.03,29.68,35,12,38,0.00
2013-2-18,34.0,22.4,15.8,12.9,4.1,-0.4,51,45,34,30.26,30.02,32,9,32,0.00
2013-2-19,48.0,36.4,23.1,40.7,26.9,12.3,87,69,49,30.19,29.68,26,5,33,0.25
2013-2-20,36.6,29.1,24.1,24.4,13.3,8.1,61,51,43,30.00,29.73,32,12,42,0.01
2013-2-21,33.8,26.8,23.0,14.7,11.1,8.2,57,51,43,30.05,29.98,31,11,34,0.00
2013-2-22,36.2,32.2,20.6,29.3,22.1,12.0,77,66,55,30.40,30.25,11,3,13,0.00
2013-2-23,44.3,39.2,34.8,42.1,36.5,28.3,92,90,77,30.26,29.78,19,5,22,0.36
2013-2-24,46.3,37.9,32.2,36.5,29.7,19.9,92,74,54,29.98,29.74,26,7,28,0.02
2013-2-25,43.0,35.7,27.3,28.0,24.1,19.8,76,63,50,30.22,29.98,12,3,15,0.00
2013-2-26,42.9,36.0,27.0,33.1,28.6,22.1,86,74,63,30.27,29.82,26,6,27,0.30
2013-2-27,47.9,42.1,36.9,45.0,37.4,33.1,92,84,68,29.85,29.49,23,6,26,1.22
2013-2-28,46.7,41.7,35.4,36.1,31.9,26.5,83,69,50,29.63,29.54,16,4,18,0.00
2013-3-1,44.4,37.6,32.1,29.1,27.2,23.3,80,67,50,29.78,29.60,18,6,20,0.00
2013-3-2,38.2,34.0,29.9,23.8,22.0,19.4,72,61,53,29.79,29.69,19,6,20,0.00
2013-3-3,37.2,31.4,28.1,19.8,17.6,14.8,65,56,48,29.77,29.67,21,8,24,0.00
2013-3-4,40.7,32.9,26.4,20.6,17.7,13.7,63,54,42,29.92,29.77,26,10,34,0.00
2013-3-5,50.2,38.0,30.1,26.6,22.9,18.8,68,55,39,30.02,29.92,22,4,22,0.00
2013-3-6,41.1,38.8,35.0,33.2,29.9,25.5,79,70,60,29.95,29.80,31,10,38,0.04
2013-3-7,39.4,36.1,32.4,32.2,27.8,24.2,85,72,60,30.08,29.90,33,6,33,0.11
2013-3-8,40.9,33.8,29.7,35.6,29.4,25.6,90,84,63,30.19,30.00,15,3,15,0.35
2013-3-9,56.9,42.5,29.5,27.0,21.4,13.3,71,46,20,30.31,30.17,13,2,14,0.00
2013-3-10,47.6,37.5,27.7,35.2,29.8,21.0,87,74,54,30.38,30.29,15,3,15,0.00
2013-3-11,55.9,45.1,33.2,45.6,38.8,28.6,86,79,58,30.32,30.07,17,3,18,0.00
2013-3-12,56.9,52.7,43.8,54.0,47.2,35.4,90,81,68,30.07,29.65,27,7,27,0.82
2013-3-13,49.6,41.7,36.4,35.4,29.0,22.3,83,62,38,29.89,29.80,27,6,29,0.00
2013-3-14,41.0,34.3,29.0,22.4,12.7,6.5,56,42,27,29.97,29.85,34,12,34,0.00
2013-3-15,46.9,37.4,27.4,29.3,18.7,9.0,55,47,36,29.99,29.71,24,7,26,0.00
2013-3-16,44.3,35.0,31.9,29.0,25.1,18.9,84,68,50,29.91,29.76,10,1,13,0.07
2013-3-17,36.5,32.5,28.5,28.1,18.7,13.1,83,58,41,30.29,29.90,18,4,22,0.00
2013-3-18,34.7,30.8,26.4,30.5,19.1,7.6,89,63,44,30.39,29.98,23,6,26,0.40
2013-3-19,47.7,38.3,33.4,35.2,30.6,14.5,91,76,37,29.98,29.69,30,7,34,0.66
2013-3-20,45.4,37.8,30.7,20.6,17.7,15.9,58,45,31,29.90,29.77,26,8,30,0.00
2013-3-21,38.9,33.3,28.7,25.1,17.2,10.7,78,52,35,29.83,29.63,20,5,21,0.00
2013-3-22,40.7,32.9,25.9,21.0,16.7,11.6,65,52,38,29.89,29.74,25,8,29,0.00
2013-3-23,44.9,37.2,30.2,21.5,18.8,16.6,62,48,35,29.94,29.82,29,10,33,0.00
2013-3-24,46.1,38.4,29.5,24.9,20.0,16.2,60,48,36,29.95,29.69,19,4,26,0.00
2013-3-25,38.6,36.1,32.3,32.8,28.5,24.1,87,74,57,29.69,29.46,21,5,23,0.26
2013-3-26,49.9,41.2,32.9,32.2,28.6,24.3,85,63,39,29.86,29.60,22,3,22,0.00
2013-3-27,51.0,41.4,31.8,29.3,26.0,20.6,68,55,31,29.99,29.86,24,6,25,0.00
2013-3-28,49.2,42.2,33.0,29.3,27.8,25.4,75,57,43,30.10,29.96,20,6,20,0.00
2013-3-29,53.2,43.5,31.8,28.8,26.8,24.4,75,53,35,30.15,30.05,22,4,22,0.00
2013-3-30,57.6,45.8,32.7,31.2,24.8,18.9,75,47,23,30.17,30.05,19,3,20,0.00
2013-3-31,57.1,45.0,33.6,41.6,32.2,21.4,90,63,36,30.12,29.67,23,4,23,0.13
2013-4-1,61.1,47.7,37.0,44.9,35.4,11.2,92,66,32,29.91,29.62,35,8,35,0.01
2013-4-2,42.9,36.4,28.8,16.2,12.5,10.1,52,38,27,30.08,29.91,32,8,32,0.00
2013-4-3,45.0,37.1,29.9,15.9,12.1,8.4,46,36,26,30.30,30.08,35,8,35,0.00
2013-4-4,52.7,40.7,28.8,24.5,17.9,11.1,54,40,29,30.39,30.07,14,4,18,0.00
2013-4-5,63.1,48.4,39.4,30.7,24.2,17.3,69,42,20,30.08,29.70,24,5,27,0.00
2013-4-6,52.6,42.1,33.6,25.8,16.1,8.5,60,37,19,30.30,29.99,19,5,21,0.00
2013-4-7,64.0,49.0,36.4,42.1,32.7,25.1,72,55,30,30.30,29.98,18,4,22,0.00
2013-4-8,74.7,59.7,45.2,46.3,42.8,38.8,80,56,30,30.06,29.96,16,3,16,0.00
2013-4-9,82.0,67.7,50.1,52.8,43.8,35.2,80,47,19,29.97,29.87,29,5,35,0.00
2013-4-10,78.3,65.2,55.3,54.9,49.5,43.3,91,58,40,29.93,29.78,23,4,33,0.51
2013-4-11,59.5,54.8,46.3,58.1,50.2,40.2,95,85,70,30.02,29.75,24,5,24,0.02
2013-4-12,47.9,42.9,41.3,40.6,39.0,38.0,90,86,72,29.99,29.70,27,9,33,0.99
2013-4-13,57.7,48.1,37.4,41.5,36.5,32.9,90,67,42,29.97,29.73,19,3,20,0.02
2013-4-14,58.7,50.9,40.4,41.0,33.2,26.3,85,54,32,30.20,29.96,31,5,31,0.00
2013-4-15,54.8,49.0,44.5,39.5,32.1,26.5,76,52,43,30.36,30.19,16,5,18,0.00
2013-4-16,71.7,57.5,46.0,55.0,47.3,39.8,81,70,52,30.36,30.10,19,3,23,0.00
2013-4-17,73.3,62.0,52.0,53.6,42.6,31.0,83,53,22,30.28,30.08,13,3,16,0.01
2013-4-18,56.8,51.8,46.1,53.6,43.6,38.0,89,74,62,30.33,30.07,17,4,19,0.02
2013-4-19,78.2,66.8,54.4,63.4,59.0,51.5,91,77,59,30.08,29.63,25,4,27,0.24
2013-4-20,57.9,51.5,46.5,52.5,34.3,23.9,84,54,34,30.29,29.68,27,10,29,0.16
2013-4-21,54.1,44.2,34.7,27.6,22.4,18.0,58,43,27,30.61,30.29,18,3,19,0.00
2013-4-22,50.1,42.5,33.7,35.9,30.4,26.8,78,63,44,30.64,30.46,28,6,33,0.00
2013-4-23,51.1,44.4,40.0,40.1,35.0,29.9,81,69,61,30.46,30.10,14,4,16,0.00
2013-4-24,74.5,54.7,34.5,53.0,43.7,30.4,87,68,46,30.11,29.79,18,3,19,0.00
2013-4-25,64.1,54.9,45.2,51.6,31.8,24.4,75,44,24,30.26,29.84,24,6,30,0.00
2013-4-26,65.5,53.5,40.4,35.2,30.1,23.2,70,44,21,30.39,30.26,16,2,18,0.00
2013-4-27,70.0,55.9,39.1,33.3,29.7,26.2,65,39,21,30.42,30.26,16,2,17,0.00
2013-4-28,70.8,56.7,40.9,42.3,35.0,27.1,74,47,28,30.30,30.17,19,3,22,0.00
2013-4-29,55.5,53.0,50.7,48.1,46.0,40.0,86,78,56,30.23,30.16,16,3,17,0.19
2013-4-30,61.4,54.2,42.6,47.0,40.4,27.0,86,63,29,30.32,30.19,21,4,23,0.01
2013-5-1,63.6,51.4,35.1,42.2,36.7,26.7,86,61,27,30.47,30.32,20,4,21,0.00
2013-5-2,70.5,55.8,37.4,46.3,40.4,34.2,90,60,35,30.46,30.31,11,2,13,0.00
2013-5-3,62.5,54.1,44.1,44.0,39.8,34.7,80,59,44,30.44,30.34,17,4,20,0.00
2013-5-4,64.7,51.8,39.3,46.0,40.4,35.9,90,67,43,30.36,30.23,16,3,16,0.00
2013-5-5,56.9,49.4,41.1,42.1,38.9,35.2,83,68,55,30.28,30.22,17,4,17,0.00
2013-5-6,62.7,53.7,46.1,50.1,44.9,40.3,83,73,61,30.25,30.14,14,3,14,0.00
2013-5-7,67.9,56.5,43.9,57.3,50.0,40.7,90,79,68,30.16,30.07,19,4,21,0.00
2013-5-8,65.8,59.4,54.7,59.4,55.0,48.7,92,86,75,30.08,29.95,17,4,20,0.69
2013-5-9,67.7,59.0,52.5,57.0,52.7,47.7,91,81,64,29.99,29.89,14,2,16,0.24
2013-5-10,81.3,66.8,52.6,60.0,55.1,48.8,91,68,39,30.00,29.87,15,2,17,0.18
2013-5-11,73.7,64.7,61.1,63.2,59.4,54.5,90,83,65,29.90,29.68,23,2,28,0.04
2013-5-12,65.2,59.2,49.5,59.0,41.3,25.2,89,55,24,29.95,29.66,27,7,36,0.02
2013-5-13,54.0,47.1,39.6,32.4,29.2,24.8,69,51,34,30.11,29.95,21,5,25,0.01
2013-5-14,59.9,48.4,34.4,32.2,28.3,23.2,78,49,25,30.15,30.02,21,3,21,0.03
2013-5-15,75.3,59.3,40.5,57.1,45.8,31.0,73,62,47,30.07,29.67,17,2,21,0.02
2013-5-16,80.7,67.7,55.8,60.4,54.9,46.5,86,66,40,29.83,29.70,19,2,19,0.00
2013-5-17,73.2,61.5,49.7,52.8,42.2,38.5,75,50,31,30.18,29.83,16,2,18,0.00
2013-5-18,63.7,58.1,52.4,53.5,48.6,43.3,77,71,58,30.30,30.18,11,2,12,0.00
2013-5-19,57.7,56.2,54.5,54.2,52.7,50.0,91,88,76,30.29,30.16,11,3,16,0.51
2013-5-20,78.5,66.7,56.5,67.8,61.0,53.9,92,83,68,30.18,29.96,15,2,15,0.00
2013-5-21,86.0,74.1,62.2,72.5,65.8,57.9,89,76,62,29.97,29.84,16,2,17,0.00
2013-5-22,80.6,71.5,60.2,69.9,64.0,54.7,84,77,70,29.93,29.81,11,1,16,0.00
2013-5-23,81.3,73.0,68.3,68.9,65.1,61.5,80,76,64,29.89,29.74,23,4,23,0.07
2013-5-24,68.3,54.7,43.7,61.6,49.3,38.3,87,82,75,29.97,29.68,23,5,23,0.76
2013-5-25,57.1,49.7,43.2,43.0,38.9,34.1,83,68,47,30.03,29.92,36,9,36,0.11
2013-5-26,67.5,56.3,46.4,38.8,36.1,31.2,68,49,29,30.20,29.99,27,8,28,0.00
2013-5-27,72.9,58.0,40.0,43.7,38.0,33.7,78,51,26,30.26,30.12,20,3,26,0.00
2013-5-28,65.3,57.1,48.6,54.9,49.3,41.4,88,76,55,30.22,30.11,10,1,10,0.37
2013-5-29,87.5,70.9,58.4,71.9,61.7,54.9,90,75,46,30.13,29.99,17,2,18,0.01
2013-5-30,90.9,80.7,70.1,68.1,64.0,61.1,75,59,39,30.13,30.04,18,3,18,0.00
2013-5-31,93.5,81.5,66.7,70.3,63.3,57.0,78,56,33,30.12,29.97,14,2,14,0.00
2013-6-1,90.7,80.3,66.7,69.7,65.6,60.3,81,62,42,30.01,29.88,21,2,23,0.00
2013-6-2,87.0,79.5,71.0,69.6,66.5,63.6,78,65,48,29.90,29.76,24,4,27,0.33
2013-6-3,79.7,71.2,66.5,67.4,63.8,54.3,86,78,65,29.87,29.77,15,1,15,0.66
2013-6-4,74.7,65.1,56.2,54.7,45.0,41.8,67,49,33,30.10,29.87,18,4,20,0.00
2013-6-5,71.8,62.2,47.0,52.3,45.3,38.6,77,56,40,30.20,30.10,15,3,18,0.00
2013-6-6,69.5,61.5,52.9,57.6,53.9,47.9,86,77,57,30.14,29.99,17,4,18,0.22
2013-6-7,63.2,60.7,59.3,59.0,56.4,54.8,87,86,83,30.00,29.58,18,6,22,3.23
2013-6-8,76.0,66.7,56.8,63.8,58.6,51.7,86,76,64,30.05,29.57,15,4,19,0.30
2013-6-9,82.0,70.4,57.3,60.5,57.4,52.2,84,65,45,30.17,30.05,14,2,16,0.00
2013-6-10,68.4,65.7,63.3,61.8,58.7,57.2,85,78,71,30.14,29.80,18,3,22,1.35
2013-6-11,79.8,73.2,66.5,67.3,64.4,60.5,85,74,63,29.80,29.63,24,6,28,0.05
2013-6-12,79.8,70.6,61.2,60.5,56.5,52.4,75,62,43,29.84,29.71,21,5,22,0.00
2013-6-13,66.0,62.0,56.5,57.1,53.7,48.8,79,74,72,29.84,29.43,23,4,23,1.21
2013-6-14,70.8,59.4,53.4,56.9,50.3,45.4,79,72,58,29.90,29.51,18,3,20,0.47
2013-6-15,80.2,67.5,54.2,58.7,53.4,48.5,82,63,40,30.01,29.89,15,2,16,0.01
2013-6-16,82.0,69.8,56.9,64.6,56.6,48.7,76,64,42,29.99,29.77,24,3,26,0.00
2013-6-17,84.6,73.8,63.3,67.1,61.2,55.2,77,65,50,29.92,29.82,16,2,19,0.00
2013-6-18,81.5,69.6,62.7,67.5,58.8,53.5,76,69,61,29.89,29.80,12,1,15,0.15
2013-6-19,78.2,67.4,57.8,54.6,50.8,45.7,74,57,33,30.16,29.87,14,2,15,0.01
2013-6-20,71.3,60.6,54.0,56.2,49.2,44.1,70,66,58,30.26,30.16,9,1,11,0.00
2013-8-28,82.7,73.8,67.9,63.3,47.5,41.8,53,40,34,29.88,29.83,5,0,15,0.00
2013-8-29,78.7,72.2,68.3,62.2,50.5,43.7,58,47,40,30.03,29.87,4,1,10,0.00
2013-8-30,82.0,74.1,67.7,66.9,52.6,42.5,61,47,40,30.02,29.85,8,3,20,0.01
2013-8-31,85.9,77.5,70.1,69.4,55.7,44.7,58,47,39,29.87,29.77,6,2,14,0.00
2013-9-1,85.3,76.4,71.7,68.3,52.6,45.7,57,44,38,29.85,29.77,7,0,15,0.00
2013-9-2,79.4,74.2,71.1,59.7,49.8,44.8,54,42,36,29.79,29.70,3,0,10,0.00
2013-9-3,79.9,73.7,62.5,63.3,54.5,35.8,62,51,37,29.88,29.71,17,3,19,0.01
2013-9-4,79.0,68.3,57.3,60.7,49.0,33.5,60,50,38,30.00,29.88,19,3,19,0.00
2013-9-5,76.8,66.5,55.4,58.8,44.6,32.8,60,46,34,30.14,29.92,16,2,18,0.00
2013-9-6,71.5,59.9,46.7,47.9,40.3,26.0,60,49,34,30.24,30.13,11,1,12,0.00
2013-9-7,77.4,62.7,47.3,53.8,42.1,27.2,60,47,35,30.13,29.90,13,2,16,0.00
2013-9-8,80.2,70.0,61.0,62.7,49.8,35.8,58,49,37,30.07,29.82,23,3,23,0.00
2013-9-9,72.6,62.8,50.8,55.7,46.9,32.3,60,56,45,30.23,30.07,12,2,13,0.00
2013-9-10,85.5,75.3,66.0,67.9,51.2,38.4,56,43,34,30.16,30.04,16,3,19,0.00
2013-9-11,93.8,82.3,73.0,75.7,58.1,42.4,57,45,32,30.11,29.96,15,2,16,0.00
2013-9-12,85.5,76.5,68.0,67.4,51.3,41.2,58,42,31,29.98,29.67,26,2,29,0.52
2013-9-13,74.7,67.2,57.5,58.0,47.8,39.8,58,50,38,29.85,29.64,20,4,21,0.08
2013-9-14,63.6,56.5,47.3,48.3,40.3,26.8,60,55,43,30.13,29.85,19,4,20,0.00
2013-9-15,71.3,57.0,42.3,51.1,39.0,24.7,61,51,42,30.22,30.07,15,2,15,0.00
2013-9-16,71.2,61.1,53.8,54.1,41.0,30.0,59,48,38,30.23,30.03,18,1,18,0.05
2013-9-17,70.3,52.9,42.1,44.2,36.6,25.8,60,54,37,30.42,30.23,18,2,20,0.10
2013-9-18,71.9,71.9,71.9,44.2,44.2,44.2,37,37,37,30.34,30.18,0,0,0,0.00
2013-9-19,78.0,73.2,71.9,56.2,47.1,44.2,48,40,37,30.19,30.03,2,0,3,0.27
2013-9-20,81.9,73.4,62.0,59.9,56.9,54.6,85,58,44,30.12,29.97,14,2,16,0.06
2013-9-21,80.7,66.7,51.7,67.1,59.7,50.3,97,80,45,30.00,29.65,16,2,18,0.20
2013-9-22,68.4,62.8,54.6,66.3,52.0,40.6,96,70,44,29.91,29.64,22,4,24,0.55
2013-9-23,65.8,55.4,43.5,45.0,42.6,40.4,92,64,44,30.04,29.91,19,4,20,0.00
2013-9-24,73.5,56.1,39.8,48.4,44.4,38.5,96,69,38,30.06,29.87,15,3,19,0.00
2013-9-25,74.2,58.2,43.3,53.7,47.1,41.5,95,70,41,29.96,29.86,10,1,11,0.00
2013-9-26,70.3,58.9,47.5,58.5,53.8,46.4,97,84,62,30.09,29.93,14,1,14,0.00
2013-9-27,69.0,60.9,52.4,55.8,53.0,47.9,96,76,49,30.25,30.08,9,1,10,0.00
2013-9-28,73.6,61.9,52.4,54.1,52.3,48.2,94,73,42,30.31,30.22,13,2,14,0.00
2013-9-29,70.5,58.7,47.6,57.7,52.4,46.4,97,81,58,30.22,30.07,12,1,12,0.00
2013-9-30,75.5,60.1,46.1,55.6,50.7,45.0,97,75,41,30.08,29.96,10,1,12,0.00
2013-10-1,80.6,64.3,51.7,60.2,55.3,49.8,95,75,48,30.01,29.89,13,1,14,0.01
2013-10-2,83.8,69.6,56.8,62.3,59.1,54.3,92,72,46,30.01,29.90,21,3,21,0.00
2013-10-3,79.3,67.7,55.1,60.3,57.2,49.9,97,72,40,30.11,30.00,11,0,12,0.00
2013-10-4,86.3,71.1,58.0,66.7,62.0,55.8,95,75,48,30.06,29.95,15,2,15,0.00
2013-10-5,78.4,69.7,64.9,66.2,64.4,63.1,95,84,65,30.08,29.99,11,1,11,0.00
2013-10-6,69.5,67.2,65.2,67.5,65.4,63.1,97,94,91,30.07,30.00,15,4,15,0.00
2013-10-7,79.9,67.4,57.5,71.7,64.3,51.4,97,90,68,30.00,29.75,28,4,35,0.45
2013-10-8,68.5,57.3,46.3,51.8,47.0,42.2,97,71,40,30.31,29.99,15,1,16,0.00
2013-10-9,62.2,56.4,50.2,49.9,46.7,41.0,78,70,63,30.37,30.26,16,3,19,0.00
2013-10-10,62.2,57.8,52.0,55.5,51.9,47.3,90,81,73,30.26,30.05,15,4,18,0.04
2013-10-11,67.6,62.9,56.9,60.8,57.7,54.3,92,83,68,30.07,29.98,19,5,19,0.07
2013-10-12,72.4,64.9,58.8,57.5,50.7,38.9,77,61,47,30.25,30.04,21,6,24,0.00
2013-10-13,66.3,60.1,54.6,54.7,52.0,49.0,83,75,61,30.36,30.24,16,4,20,0.00
2013-10-14,67.9,56.3,46.1,52.1,48.7,44.2,96,78,52,30.35,30.23,10,1,12,0.00
2013-10-15,69.7,56.3,45.4,55.1,46.1,25.5,97,75,21,30.25,30.10,14,2,16,0.00
2013-10-16,68.3,60.1,49.4,59.5,55.5,47.8,96,85,70,30.10,29.91,10,1,10,0.00
2013-10-17,74.3,65.7,60.8,63.5,61.0,58.9,96,85,62,29.91,29.68,11,1,11,0.03
2013-10-18,67.5,60.7,49.2,63.3,47.4,42.0,89,63,43,29.98,29.67,26,7,27,0.00
2013-10-19,64.3,53.3,41.4,54.7,45.9,39.8,95,77,51,29.98,29.74,11,1,11,0.01
2013-10-20,63.1,54.0,42.9,54.6,40.9,33.1,93,64,33,30.06,29.75,20,5,21,0.01
2013-10-21,67.5,53.0,39.5,45.4,39.6,36.1,91,65,33,30.15,29.97,15,2,17,0.00
2013-10-22,65.5,53.0,42.1,51.0,45.6,39.1,96,77,56,29.97,29.75,20,2,21,0.00
2013-10-23,56.5,46.3,37.4,41.2,37.7,35.3,94,74,49,29.81,29.60,17,2,21,0.00
2013-10-24,53.1,44.5,35.8,36.4,31.9,25.8,91,64,37,30.02,29.76,25,5,30,0.00
2013-10-25,54.4,43.5,35.3,34.9,31.0,27.8,82,63,37,30.23,30.02,24,4,28,0.00
2013-10-26,55.4,44.0,29.5,34.2,31.2,27.9,95,64,37,30.23,29.89,22,3,23,0.00
2013-10-27,58.2,49.7,40.3,35.3,33.0,30.9,71,53,37,30.12,29.85,22,5,25,0.00
2013-10-28,61.7,46.9,31.5,36.2,33.1,29.1,91,62,35,30.30,30.12,18,2,21,0.00
2013-10-29,58.7,47.9,38.9,38.3,35.0,32.2,87,62,41,30.41,30.30,11,1,11,0.00
2013-10-30,59.7,49.4,37.7,51.8,43.8,34.4,90,81,68,30.35,30.17,10,0,13,0.00
2013-10-31,68.8,60.5,50.2,62.3,56.0,48.1,94,86,72,30.22,29.80,19,1,20,0.07
2013-11-1,69.9,65.4,55.7,63.9,59.1,53.7,95,81,58,29.80,29.55,34,5,44,0.32
2013-11-2,68.5,56.9,49.1,54.1,47.5,40.3,97,73,44,29.78,29.61,18,2,20,0.00
2013-11-3,51.8,45.1,34.4,42.8,33.5,20.7,90,66,35,30.46,29.78,19,4,20,0.00
2013-11-4,47.8,37.5,29.3,26.7,20.3,14.6,76,52,30,30.65,30.46,16,2,18,0.00
2013-11-5,55.8,46.0,33.0,43.0,36.3,24.9,87,69,54,30.64,30.47,12,2,13,0.00
2013-11-6,64.8,51.9,37.7,53.3,45.2,36.0,96,79,53,30.49,30.05,12,1,14,0.00
2013-11-7,63.0,54.1,38.6,58.5,48.8,31.5,94,83,60,30.05,29.75,23,4,26,0.10
2013-11-8,50.1,42.7,37.6,36.7,30.0,25.4,81,62,40,30.22,29.94,32,6,32,0.00
2013-11-9,51.2,42.2,32.1,33.8,28.9,25.5,81,61,38,30.30,29.98,15,2,17,0.00
2013-11-10,59.7,48.1,38.3,37.6,33.1,27.6,83,58,37,30.06,29.82,35,8,43,0.00
2013-11-11,53.7,46.1,39.8,35.0,28.9,25.6,59,51,39,30.22,29.95,26,6,26,0.00
2013-11-12,51.0,38.7,29.5,37.1,25.2,16.7,85,58,46,30.30,29.92,22,6,27,0.01
2013-11-13,40.2,31.6,24.8,19.5,16.3,10.5,73,54,30,30.38,30.28,28,4,28,0.00
2013-11-14,52.9,40.3,30.4,21.8,18.9,14.1,64,45,22,30.28,30.17,21,6,27,0.00
2013-11-15,57.7,43.5,30.8,33.1,27.1,21.1,80,54,28,30.26,30.15,10,1,12,0.00
2013-11-16,61.4,49.0,38.2,47.3,41.2,28.2,96,76,50,30.33,30.22,11,1,12,0.03
2013-11-17,61.7,55.2,46.7,58.3,53.1,45.1,96,93,88,30.25,29.77,9,1,10,0.02
2013-11-18,65.3,60.3,50.7,62.6,41.2,26.3,95,54,28,29.78,29.59,32,9,43,0.17
2013-11-19,50.7,44.1,35.2,29.0,25.2,21.7,58,47,41,30.34,29.78,27,9,31,0.00
2013-11-20,45.4,33.8,26.5,22.2,18.0,6.4,78,54,20,30.61,30.34,8,1,17,0.00
2013-11-21,44.9,33.0,28.4,29.1,20.3,17.7,67,59,54,30.61,30.58,9,1,10,0.00
2013-11-22,58.2,53.1,48.8,50.8,48.4,41.3,95,84,74,30.38,29.90,16,4,18,0.08
2013-11-23,53.4,42.2,30.6,48.8,26.3,11.2,93,55,35,30.04,29.90,31,10,35,0.01
2013-11-24,30.5,25.6,22.7,12.7,4.2,1.5,47,39,31,30.40,30.02,35,12,44,0.00
2013-11-25,36.0,28.2,19.5,16.6,12.1,6.3,65,51,40,30.50,30.33,17,4,17,0.00
2013-11-26,52.7,36.6,32.2,51.8,27.8,16.6,97,72,51,30.34,29.72,20,2,22,0.76
2013-11-27,63.4,47.0,34.4,61.7,43.1,20.3,97,87,56,29.77,29.36,32,9,32,2.09
2013-11-28,35.7,31.6,27.1,23.9,15.2,10.2,71,51,35,30.47,29.77,31,9,33,0.00
2013-11-29,39.6,32.1,26.5,22.7,20.1,16.9,80,62,46,30.73,30.46,15,2,18,0.00
2013-11-30,36.9,31.3,23.9,30.4,21.9,12.7,79,68,55,30.75,30.36,12,2,14,0.00
2013-12-1,49.2,40.1,29.6,33.5,30.2,26.6,89,69,53,30.36,30.00,12,1,12,0.00
2013-12-2,51.6,41.2,35.3,35.5,31.5,29.1,92,69,46,30.00,29.87,7,0,8,0.00
2013-12-3,53.7,42.5,33.9,38.3,35.2,31.5,95,77,49,30.00,29.87,13,1,13,0.00
2013-12-4,50.4,43.0,32.7,46.3,38.7,30.6,95,85,73,30.12,30.00,7,1,9,0.00
2013-12-5,58.9,53.4,48.0,57.0,51.7,46.4,97,94,89,30.11,29.92,11,1,12,0.01
2013-12-6,62.5,48.8,38.2,61.3,47.1,36.2,98,94,87,30.15,29.85,18,3,22,0.87
2013-12-7,40.7,36.3,30.8,36.6,28.7,17.4,96,75,56,30.51,30.08,20,4,21,0.15
2013-12-8,32.5,29.5,26.3,29.7,21.3,16.0,95,72,56,30.58,30.34,10,2,12,0.00
2013-12-9,37.2,34.1,30.9,36.2,33.0,29.6,97,95,93,30.34,29.96,16,4,18,0.48
2013-12-10,34.0,31.7,26.7,32.8,29.5,19.0,97,92,72,30.15,29.89,15,3,18,0.08
2013-12-11,32.6,27.9,22.7,19.6,17.8,14.5,76,66,51,30.34,30.15,27,6,27,0.05
2013-12-12,28.3,24.4,20.4,17.1,9.9,4.3,70,54,39,30.37,30.17,18,5,21,0.00
2013-12-13,34.5,24.8,17.4,20.5,13.0,8.0,73,61,47,30.33,30.14,24,4,33,0.01
2013-12-14,31.4,26.4,21.6,30.2,22.1,18.6,96,84,68,30.47,29.74,21,5,22,0.00
2013-12-15,39.7,34.3,30.1,33.8,29.1,20.9,97,82,59,29.85,29.50,26,7,30,0.38
2013-12-16,32.0,26.5,17.8,23.5,14.1,8.4,80,60,42,30.23,29.84,27,7,29,0.01
2013-12-17,30.2,25.3,20.5,28.4,21.7,14.4,94,86,70,30.22,29.92,10,2,12,0.00
2013-12-18,37.1,26.2,20.3,24.7,20.3,17.3,89,79,55,30.18,29.92,16,4,25,0.03
2013-12-19,45.2,33.9,22.5,31.1,25.6,18.4,88,72,51,30.19,30.03,14,2,14,0.09
2013-12-20,52.8,41.4,30.6,37.8,32.6,28.6,93,73,48,30.10,29.96,12,1,14,0.00
2013-12-21,63.7,51.3,39.3,55.4,46.5,36.1,97,84,67,30.00,29.89,13,1,13,0.01
2013-12-22,70.3,65.7,60.1,63.8,59.7,55.5,90,81,73,29.95,29.79,26,7,33,0.02
2013-12-23,61.8,55.5,40.9,60.2,52.8,30.7,97,91,69,30.16,29.88,30,3,33,0.64
2013-12-24,40.8,35.1,25.8,31.1,22.6,10.0,92,61,46,30.35,30.09,24,7,27,0.00
2013-12-25,29.4,24.6,18.6,15.9,10.2,7.4,63,54,44,30.53,30.35,22,4,24,0.00
2013-12-26,36.4,29.9,23.9,28.1,23.1,15.5,83,75,63,30.43,30.17,16,2,20,0.00
2013-12-27,41.6,32.2,25.2,23.8,21.6,18.1,81,66,45,30.37,30.26,22,3,24,0.00
2013-12-28,56.9,40.8,24.0,30.1,26.6,20.9,90,60,34,30.29,30.07,25,4,27,0.00
2013-12-29,45.7,42.0,38.2,44.6,35.9,28.1,96,80,57,30.07,29.41,22,3,26,1.37
2013-12-30,45.7,36.0,23.0,38.4,27.9,11.0,93,73,54,30.18,29.70,23,5,26,0.00
2013-12-31,31.5,25.8,19.1,27.0,14.7,9.8,87,63,49,30.30,30.07,24,4,29,0.00
2014-1-1,33.4,28.9,22.7,22.9,16.9,10.5,67,60,53,30.41,30.23,13,2,19,0.00
2014-1-2,33.2,27.2,17.2,25.0,22.0,15.0,92,81,65,30.23,29.65,20,6,22,0.00